CYGNUS NG-17

Last updated on Thu Jun 30 2022 00:02:05 GMT+0000 (Coordinated Universal Time)

1 51712U 22015A 22180.25402648 .00421895 11190-4 14994-3 0 9995 2 51712 51.6422 276.7612 0173966 306.4543 159.5454 15.97692768 20089

Satellite not in orbit